Tracking 29892 objects as of 21-Nov-2024
HD Live streaming from Space Station
objects crossing your sky now

FENGYUN 1C DEB

Track FENGYUN 1C DEB now!
10-day predictions


NORAD ID: 29766
Int'l Code: 1999-025BG
Perigee: 809.9 km
Apogee: 1,027.9 km
Inclination: 98.7 °
Period: 103.2 minutes
Semi major axis: 7289 km
RCS: 0.032 m2 (small)
Launch date: May 10, 1999
Source: People's Republic of China (PRC)
Launch site: Taiyaun Space Center, China (TSC)

Note: This is SATELLITE DEBRIS
Your satellite tracking list
Your tracking list is empty




NASA's NSSDC Master Catalog

Two Line Element Set (TLE):
1 29766U 99025BG  24325.37937965  .00003716  00000-0  25508-2 0  9999
2 29766  98.6554 291.4599 0149531 282.6930 232.7653 13.94830572903991
Source of the keplerian elements: AFSPC